Вернуться в каталог

GALILEO 16

26C

АктивенНавигацияMEO
NORAD 41860·PAYLOAD·🇪🇺 EU

Запущен Nov 17, 2016 с Guiana Space Centre

Loading…

Ближайшие Пролёты (ближайшие 24 часа)

TLE

СвежийSource: CelesTrak SupGP

Эпоха: Sep 13, 2026, 23:59 UTC

1 41860C 16069B   26256.99979167  .00000000  00000+0  00000+0 0  2563
2 41860  55.5531  98.6216 0003791  41.8185 105.4488  1.70474237    10

Отслеживайте GALILEO 16 в реальном времени с AllMySat

Download on the App Store